EW0867 Weather Reports


time (UTC)temp
C
wind
direction
speed
KPH
gust
KPH
rain 1hr
cm
rain 24hr
cm
rain mn
cm
humidity
%
barometer
mb
20260506225949 13 356 0.0 0.0 0.00 3.99 0.03 80 1010.7
20260506220510 13 354 0.0 0.0 0.20 4.19 0.03 80 1010.6
20260506213509 13 352 0.0 0.0 0.10 4.39 0.81 79 1010.6
20260506213010 13 353 0.0 0.0 0.10 4.39 0.81 80 1010.6
20260506212532 13 345 0.0 0.0 0.10 4.39 0.81 80 1010.6
20260506212011 13 344 0.0 0.0 0.10 4.29 0.79 80 1010.5
20260506211454 13 344 0.0 0.0 0.10 4.29 0.79 80 1010.5
20260506211000 13 344 0.0 0.0 0.10 4.29 0.79 80 1010.4
20260506210502 13 342 0.0 0.0 0.10 4.29 0.79 80 1010.4
20260506210005 13 342 0.0 0.0 0.10 4.29 0.79 79 1010.4
20260506205511 13 342 0.0 0.0 0.20 4.90 0.79 79 1010.4
20260506205012 13 342 0.0 0.0 0.20 4.90 0.79 79 1010.4
20260506204516 13 342 0.0 0.0 0.20 4.90 0.79 79 1010.2
20260506204017 13 341 0.0 0.0 0.20 4.90 0.79 79 1010.2
20260506203541 14 339 0.0 0.0 0.20 4.90 0.79 79 1010.2
20260506203021 14 339 0.0 0.0 0.20 4.90 0.79 78 1010.2
20260506202521 14 337 0.0 0.0 0.20 4.90 0.79 78 1010.3
20260506202002 14 338 0.0 0.0 0.10 4.80 0.79 77 1010.3
20260506201507 14 339 0.0 0.0 0.10 4.80 0.79 77 1010.1
20260506201011 14 7 0.0 0.0 0.10 4.80 0.79 76 1010.0
20260506200513 14 360 0.0 0.0 0.10 4.80 0.79 76 1010.1
20260506200013 15 342 0.0 0.0 0.20 4.80 0.79 75 1010.1
20260506195518 15 335 0.0 6.4 0.10 5.00 0.76 74 1010.0
20260506195038 15 348 0.0 6.4 0.10 5.00 0.76 73 1010.0
20260506194518 15 338 0.0 0.0 0.10 5.00 0.76 73 1009.8
20260506194018 15 24 0.0 0.0 0.10 5.00 0.76 73 1009.7
20260506193520 15 353 0.0 0.0 0.20 5.00 0.76 74 1009.6
20260506190917 15 79 0.0 0.0 0.20 5.00 0.76 77 1009.0
20260506184415 14 360 0.0 9.7 0.20 4.90 0.74 80 1008.9
20260506183923 14 335 0.0 9.7 0.20 4.90 0.74 81 1008.9
20260506183428 15 349 0.0 9.7 0.10 4.80 0.71 81 1008.9
20260506175942 15 5 0.0 0.0 0.20 4.80 0.71 76 1008.4
20260506175505 15 2 0.0 0.0 0.10 4.80 0.71 76 1008.5
20260506174944 15 2 0.0 0.0 0.20 4.80 0.71 76 1008.4
20260506174430 15 357 0.0 0.0 0.20 4.80 0.71 76 1008.2
20260506173930 15 356 0.0 0.0 0.20 4.80 0.71 76 1008.1
20260506173455 15 357 0.0 0.0 0.20 4.80 0.71 75 1008.1
20260506172935 15 357 0.0 0.0 0.30 4.80 0.71 75 1008.0
20260506172456 15 360 0.0 0.0 0.20 4.70 0.69 75 1008.0
20260506171936 15 1 0.0 0.0 0.20 4.70 0.69 75 1007.8
20260506171441 15 3 0.0 0.0 0.20 4.70 0.69 75 1007.8
20260506170943 15 80 0.0 0.0 0.30 4.70 0.69 75 1007.7
20260506170445 15 34 0.0 0.0 0.30 4.70 0.69 75 1007.6
20260506165947 15 7 0.0 0.0 0.30 4.70 0.69 75 1007.5
20260506165449 15 352 0.0 4.8 0.41 4.70 0.69 74 1007.5
20260506164951 15 15 0.0 4.8 0.30 4.60 0.66 73 1007.5
20260506164454 16 356 0.0 4.8 0.30 4.60 0.66 72 1007.5
20260506164000 16 77 0.0 1.6 0.41 4.60 0.66 72 1007.6
20260506163447 16 88 0.0 0.0 0.41 4.60 0.66 71 1007.4
20260506162507 16 24 0.0 1.6 0.41 4.50 0.64 70 1007.2
20260506162010 17 334 0.0 1.6 0.51 4.50 0.64 69 1007.1
20260506161511 17 62 0.0 0.0 0.61 4.50 0.64 69 1006.8
20260506161014 17 12 0.0 4.8 0.51 4.39 0.61 69 1006.5
20260506160515 17 321 1.6 8.0 0.51 4.39 0.61 70 1006.2
20260506155957 17 348 0.0 8.0 0.41 4.29 0.61 70 1006.2
20260506155501 17 351 0.0 8.0 0.51 4.29 0.61 72 1006.3
20260506155002 17 344 1.6 8.0 0.61 4.29 0.61 72 1006.3
20260506154522 17 327 0.0 4.8 0.61 4.29 0.61 72 1006.3
20260506154003 17 345 0.0 6.4 0.51 4.19 0.58 73 1006.4
20260506153507 17 10 0.0 11.3 0.61 4.19 0.58 74 1006.6
20260506153029 17 208 0.0 12.9 0.61 4.09 0.56 74 1006.6
20260506152512 17 39 3.2 12.9 0.61 4.09 0.56 74 1006.4
20260506152013 17 325 0.0 16.1 0.51 3.99 0.53 73 1006.5
20260506151513 18 360 3.2 11.3 0.51 3.91 0.51 74 1006.4
20260506151015 18 353 1.6 8.0 0.61 3.91 0.51 76 1006.5
20260506150535 18 306 0.0 11.3 0.61 3.91 0.51 76 1006.5
20260506150016 18 331 0.0 11.3 0.61 3.91 0.51 75 1006.5
20260506145457 19 157 0.0 0.0 0.61 3.81 0.51 77 1006.5
20260506145001 19 175 0.0 0.0 0.51 3.71 0.48 76 1006.4
20260506144502 20 101 0.0 0.0 0.61 3.71 0.48 77 1006.3
20260506144006 19 130 0.0 0.0 0.61 3.71 0.48 77 1006.3
20260506143507 19 150 0.0 0.0 0.61 3.61 0.46 77 1006.3
20260506143009 19 133 0.0 0.0 0.61 3.51 0.43 77 1006.4
20260506142529 19 96 0.0 8.0 0.61 3.51 0.43 78 1006.3
20260506142032 19 165 0.0 8.0 0.61 3.51 0.43 77 1006.4
20260506141512 20 186 0.0 12.9 0.61 3.40 0.43 78 1006.4
20260506140958 19 128 3.2 12.9 0.61 3.30 0.41 77 1006.4
20260506140502 19 136 1.6 12.9 0.61 3.30 0.41 78 1006.4
20260506140003 18 162 0.0 0.0 0.61 3.30 0.41 79 1006.4
20260506135504 18 186 0.0 8.0 0.51 3.20 0.38 80 1006.6
20260506135009 18 175 1.6 8.0 0.61 3.20 0.38 80 1006.6
20260506134510 19 159 0.0 8.0 0.51 3.10 0.36 81 1006.7
20260506134014 18 166 0.0 0.0 0.61 3.10 0.36 80 1006.7
20260506133458 18 107 0.0 6.4 0.51 3.00 0.33 80 1006.9
20260506133021 18 107 0.0 9.7 0.41 2.90 0.33 79 1006.9
20260506132520 19 175 0.0 12.9 0.41 2.90 0.33 79 1007.0
20260506132005 19 143 0.0 11.3 0.41 2.79 0.30 80 1007.0
20260506131505 18 154 0.0 4.8 0.41 2.79 0.30 81 1007.0
20260506131007 18 169 0.0 14.5 0.30 2.69 0.28 80 1007.3
20260506130511 18 186 1.6 8.0 0.30 2.69 0.28 81 1007.3
20260506130012 18 122 0.0 3.2 0.30 2.69 0.28 81 1007.2
20260506125513 18 90 0.0 3.2 0.41 2.69 0.28 81 1007.1
20260506124958 18 98 0.0 12.9 0.30 2.59 0.25 81 1007.2
20260506124459 18 185 1.6 12.9 0.30 2.59 0.25 81 1007.1
20260506124001 18 144 0.0 12.9 0.20 2.49 0.23 82 1007.1
20260506123502 18 132 0.0 12.9 0.20 2.49 0.23 83 1007.1
20260506123004 17 148 1.6 12.9 0.20 2.49 0.23 84 1007.2
20260506122505 17 148 0.0 14.5 0.10 2.39 0.23 84 1007.3
20260506122006 17 158 0.0 14.5 0.10 2.39 0.23 83 1007.3
20260506121507 17 148 0.0 9.7 0.10 2.39 0.23 83 1007.3
20260506121029 17 175 0.0 9.7 0.20 2.39 0.23 83 1007.4
20260506120529 17 179 0.0 4.8 0.20 2.39 0.23 83 1007.4
20260506120008 17 102 0.0 4.8 0.20 2.39 0.23 84 1007.3
20260506115512 17 108 0.0 4.8 0.10 2.31 0.20 84 1007.4
20260506115014 17 100 0.0 22.5 0.10 2.31 0.20 84 1007.6
20260506114455 17 106 0.0 9.7 0.10 2.31 0.20 84 1007.6
20260506114001 17 175 0.0 12.9 0.20 2.31 0.20 84 1007.6
20260506113501 17 125 1.6 12.9 0.20 2.31 0.20 85 1007.7
20260506113002 17 100 0.0 3.2 0.20 2.31 0.20 86 1007.8
20260506112523 17 144 0.0 12.9 0.20 2.31 0.20 88 1007.7
20260506112006 17 150 0.0 12.9 0.20 2.31 0.20 88 1007.8
20260506111506 17 137 0.0 3.2 0.20 2.31 0.20 89 1007.9
20260506111007 16 165 0.0 3.2 0.10 2.21 0.18 89 1007.7
20260506110507 16 107 0.0 0.0 0.10 2.21 0.18 89 1007.8
20260506110012 16 96 0.0 0.0 0.10 2.21 0.18 89 1007.9
20260506105512 16 210 0.0 8.0 0.20 2.39 0.18 90 1008.0
20260506105017 16 163 0.0 8.0 0.20 2.39 0.18 91 1008.0
20260506104518 16 130 1.6 8.0 0.20 2.39 0.18 92 1008.1
20260506103959 16 68 0.0 8.0 0.10 2.31 0.15 92 1008.0
20260506103500 16 29 0.0 0.0 0.10 2.31 0.15 93 1008.1
20260506103022 16 147 0.0 9.7 0.10 2.31 0.15 94 1008.1
20260506102501 16 86 0.0 9.7 0.10 2.31 0.15 94 1008.1
20260506102002 16 147 0.0 8.0 0.10 2.31 0.15 94 1008.1
20260506101502 15 107 1.6 11.3 0.10 2.31 0.15 94 1008.1
20260506101004 15 167 0.0 14.5 0.10 2.31 0.15 95 1008.0
20260506100505 15 134 1.6 14.5 0.10 2.31 0.15 95 1008.1
20260506100007 15 38 1.6 6.4 0.10 2.31 0.15 96 1008.1
20260506095507 15 100 0.0 0.0 0.00 2.31 0.15 96 1008.1
20260506095009 -17 0.0 0.0 0.00 2.31 0.15 1008.1
20260506094515 -17 0.0 0.0 0.00 2.31 0.15 1008.1
20260506094016 -17 0.0 0.0 0.00 2.31 0.15 1008.1
20260506093013 -17 0.0 0.0 0.00 2.31 0.15 1008.1
20260506092534 -17 0.0 0.0 0.00 2.31 0.15 1008.0
20260506092013 -17 0.0 0.0 0.00 2.31 0.15 1008.0
20260506091516 -17 0.0 0.0 0.00 2.31 0.15 1008.0
20260506091017 -17 0.0 0.0 0.00 2.31 0.15 1008.0
20260506090518 -17 0.0 0.0 0.00 2.31 0.15 1008.1
20260506085959 -17 0.0 0.0 0.00 2.31 0.15 1008.0
20260506085524 -17 0.0 0.0 0.00 2.39 0.15 1007.9
20260506085011 -17 0.0 0.0 0.00 2.39 0.15 1007.9
20260506084459 -17 0.0 0.0 0.00 2.39 0.15 1007.8
20260506084006 -17 0.0 0.0 0.00 2.39 0.15 1007.6
20260506083508 -17 0.0 0.0 0.00 2.39 0.15 1008.0
20260506083013 -17 0.0 0.0 0.00 2.39 0.15 1008.4
20260506082514 -17 0.0 0.0 0.00 2.39 0.15 1008.7
20260506082035 -17 0.0 0.0 0.00 2.39 0.15 1008.8
20260506081536 -17 0.0 0.0 0.00 2.39 0.15 1008.9
20260506080511 -17 0.0 0.0 0.00 2.39 0.15 1008.7
20260506073008 -17 0.0 0.0 0.00 3.00 0.15 1008.3
20260506072508 -17 0.0 0.0 0.00 3.00 0.15 1008.3
20260506072009 -17 0.0 0.0 0.00 3.00 0.15 1008.2
20260506071510 -17 0.0 0.0 0.00 3.00 0.15 1008.2
20260506071011 -17 0.0 0.0 0.00 3.00 0.15 1008.1
20260506070512 -17 0.0 0.0 0.00 3.00 0.15 1008.1
20260506062501 -17 0.0 0.0 0.00 4.09 0.15 1008.5
20260506062021 -17 0.0 0.0 0.00 4.09 0.15 1008.7
20260506061501 -17 0.0 0.0 0.00 4.09 0.15 1008.5
20260506060459 -17 0.0 0.0 0.00 4.09 0.15 1008.7
20260506051005 -17 0.0 0.0 0.00 5.31 0.15 1008.5
20260506050505 -17 0.0 0.0 0.00 5.31 0.15 1008.5
20260506045000 13 156 0.0 0.0 0.10 5.31 0.15 97 1008.7
20260506044501 13 157 0.0 0.0 0.10 5.31 0.15 96 1008.9
20260506044006 13 144 0.0 0.0 0.10 5.31 0.15 96 1009.0
20260506043506 13 135 0.0 0.0 0.10 5.31 0.15 96 1009.1
20260506043008 13 150 0.0 0.0 0.10 5.31 0.15 96 1009.2
20260506042528 13 157 0.0 0.0 0.10 5.31 0.15 96 1009.2
20260506042009 13 150 0.0 0.0 0.10 5.31 0.15 96 1009.2
20260506041509 13 161 0.0 0.0 0.10 5.31 0.15 96 1009.3
20260506041011 13 165 0.0 0.0 0.10 5.31 0.15 96 1009.4
20260506040511 13 169 0.0 0.0 0.10 5.31 0.15 96 1009.4
20260506040013 13 143 0.0 0.0 0.10 5.31 0.15 96 1009.4
20260506035518 13 146 0.0 0.0 0.10 5.31 0.15 96 1009.5
20260506035000 13 146 0.0 0.0 0.00 5.21 0.13 96 1009.6
20260506034500 13 150 0.0 0.0 0.00 5.21 0.13 96 1009.5
20260506034021 13 150 0.0 0.0 0.10 5.21 0.13 96 1009.5
20260506033500 13 158 0.0 0.0 0.10 5.21 0.13 96 1009.4
20260506033005 13 144 0.0 0.0 0.10 5.21 0.13 96 1009.3
20260506032526 13 148 0.0 0.0 0.10 5.21 0.13 96 1009.4
20260506032007 13 148 0.0 0.0 0.10 5.21 0.13 96 1009.4
20260506031507 13 148 0.0 0.0 0.10 5.21 0.13 96 1009.4
20260506031029 13 163 0.0 0.0 0.10 5.21 0.13 96 1009.5
20260506030529 13 165 0.0 0.0 0.10 5.21 0.13 96 1009.6
20260506030009 13 165 0.0 0.0 0.10 5.21 0.13 96 1009.8
20260506025509 13 49 0.0 0.0 0.10 5.21 0.13 96 1009.6
20260506025014 13 157 0.0 0.0 0.10 5.21 0.13 96 1010.0
20260506024459 13 112 0.0 0.0 0.00 5.11 0.10 96 1010.2
20260506024005 13 112 0.0 0.0 0.00 5.11 0.10 96 1010.3
20260506023508 13 111 0.0 0.0 0.00 5.11 0.10 96 1010.3
20260506023010 13 96 0.0 0.0 0.00 5.11 0.10 96 1010.3
20260506022510 13 95 0.0 0.0 0.00 5.11 0.10 96 1010.3
20260506022011 13 86 0.0 0.0 0.00 5.11 0.10 96 1010.2
20260506021511 13 85 0.0 0.0 0.00 5.11 0.10 96 1010.4
20260506021013 13 154 0.0 0.0 0.00 5.11 0.10 96 1010.5
20260506020534 13 154 0.0 0.0 0.00 5.11 0.10 96 1010.5
20260506020034 13 46 0.0 0.0 0.10 5.11 0.10 96 1010.5
20260506015514 13 46 0.0 0.0 0.10 5.11 0.10 96 1010.6
20260506015000 13 46 0.0 0.0 0.10 5.11 0.10 96 1010.6
20260506014504 13 46 0.0 0.0 0.10 5.11 0.10 96 1010.6
20260506014006 13 46 0.0 0.0 0.10 5.11 0.10 96 1010.5
20260506013506 13 46 0.0 0.0 0.10 5.11 0.10 96 1010.4
20260506013012 13 160 0.0 0.0 0.10 5.11 0.10 96 1010.4
20260506012512 13 167 0.0 0.0 0.10 5.11 0.10 96 1010.4
20260506012033 13 167 0.0 0.0 0.10 5.11 0.10 96 1010.4
20260506011513 13 168 0.0 0.0 0.20 5.11 0.10 96 1010.5
20260506011015 13 168 0.0 0.0 0.20 5.11 0.10 96 1010.5
20260506010455 13 81 0.0 0.0 0.20 5.11 0.10 96 1010.5
20260506010021 13 81 0.0 0.0 0.10 5.00 0.08 96 1010.4
20260506005501 13 82 0.0 0.0 0.10 5.00 0.08 96 1010.4
20260506005002 13 140 0.0 0.0 0.10 5.00 0.08 96 1010.5
20260506004523 13 143 0.0 0.0 0.10 5.00 0.08 96 1010.7
20260506004006 13 110 0.0 0.0 0.10 5.00 0.08 96 1010.9
20260506003506 13 110 0.0 0.0 0.10 5.00 0.08 96 1010.9
20260506003009 13 136 0.0 0.0 0.10 5.00 0.08 96 1011.1
20260506002509 13 136 0.0 0.0 0.10 5.00 0.08 96 1010.9
20260506002011 13 137 0.0 0.0 0.10 5.00 0.08 96 1011.1
20260506001518 13 142 0.0 0.0 0.00 4.90 0.05 96 1011.2
20260506001000 13 142 0.0 0.0 0.00 4.90 0.05 96 1011.2
20260506000501 13 143 0.0 0.0 0.00 4.90 0.05 96 1011.3
20260506000002 13 157 0.0 0.0 0.10 4.90 0.05 96 1011.3
20260505235503 13 157 0.0 0.0 0.10 4.90 0.05 96 1011.4
20260505235005 13 157 0.0 0.0 0.10 4.90 0.05 96 1011.4
20260505234525 13 157 0.0 0.0 0.10 4.90 0.05 96 1011.4
20260505234006 13 157 0.0 0.0 0.10 4.90 0.05 96 1011.5
20260505233506 13 157 0.0 0.0 0.10 4.90 0.05 96 1011.5
20260505233007 13 164 0.0 0.0 0.20 4.90 0.05 96 1011.6
20260505232507 13 165 0.0 0.0 0.20 4.90 0.05 95 1011.8
20260505232009 13 164 0.0 0.0 0.20 4.90 0.05 95 1011.7
20260505231530 13 164 0.0 0.0 0.20 4.90 0.05 95 1011.7